Location: Nelson
(41.2830°S, 173.2830°E)
Time: 02:50:27
(UTC+13:00)

Cosmos 1745 Rocket - Pass Details

Date: 24 January 2019
Orbit: 953 x 998 km, 83.0° (Epoch: 13 October)

Event Time Altitude Azimuth Distance (km) Brightness Sun altitude
Exits shadow 23:01:18 22° 357° (N) 2,054 5.3 -19.3°
Maximum altitude 23:05:43 85° 83° (E) 1,013 4.0 -19.9°
Drops below altitude 10° 23:12:08 10° 172° (S) 2,781 7.0 -20.6°
Sets 23:14:40 0° 171° (S) 3,730 7.7 -20.9°
